Location: Unspecified
(0.0000°N, 0.0000°E)
Time: 11:20:07
(UTC+00:00)

Altair - Pass Details

Date: 23 November 2019
Orbit: 1502 x 1682 km, 47.2° (Epoch: 07 December)

Event Time Altitude Azimuth Distance (km) Brightness Sun altitude
Rises 00:03:20 0° 242° (WSW) 4,783 - -69.3°
Reaches altitude 10° 00:06:54 10° 251° (WSW) 3,768 - -69.1°
Maximum altitude 00:15:02 32° 310° (NW) 2,393 - -68.6°
Drops below altitude 10° 00:22:59 10° 11° (N) 3,660 - -67.9°
Sets 00:26:26 0° 21° (NNE) 4,628 - -67.5°
